Location: Ottawa
(45.4167°N, 75.7000°W)
Time: 09:09:13
(UTC-04:00)

Envisat - Pass Details

Date: 08 October 2017
Orbit: 764 x 766 km, 98.2° (Epoch: 18 October)

Event Time Altitude Azimuth Distance (km) Brightness Sun altitude
Exits shadow 22:21:38 13° 265° (W) 2,098 5.6 -39.4°
Maximum altitude 22:22:11 13° 272° (W) 2,087 5.7 -39.4°
Drops below altitude 10° 22:24:34 10° 300° (WNW) 2,309 6.1 -39.8°
Sets 22:28:13 0° 328° (NNW) 3,241 7.1 -40.3°
